TimeAST,TemperatureF,Dew PointF,Humidity,Sea Level PressureIn,VisibilityMPH,Wind Direction,Wind SpeedMPH,Gust SpeedMPH,PrecipitationIn,Events,Conditions,WindDirDegrees,DateUTC
12:55 AM,84.2,78.8,84,29.83,-9999.0,East,12.7,-,N/A,,Unknown,90,2013-09-07 04:55:00
1:55 AM,84.2,78.8,84,29.83,-9999.0,East,13.8,-,N/A,,Unknown,100,2013-09-07 05:55:00
2:55 AM,84.2,78.8,84,29.80,-9999.0,East,15.0,-,N/A,,Unknown,100,2013-09-07 06:55:00
3:55 AM,84.2,78.8,84,29.80,-9999.0,ESE,13.8,-,N/A,,Unknown,110,2013-09-07 07:55:00
4:55 AM,84.2,78.8,84,29.80,-9999.0,East,11.5,-,N/A,,Unknown,100,2013-09-07 08:55:00
5:55 AM,84.2,78.8,84,29.83,-9999.0,ESE,11.5,-,N/A,,Unknown,120,2013-09-07 09:55:00
6:55 AM,84.2,78.8,84,29.83,-9999.0,ESE,10.4,-,N/A,,Unknown,110,2013-09-07 10:55:00
8:00 AM,86.0,78.8,79,29.86,6.2,ESE,13.8,-,N/A,,Scattered Clouds,110,2013-09-07 12:00:00
9:00 AM,87.8,80.6,79,29.89,6.2,ESE,12.7,-,N/A,,Scattered Clouds,120,2013-09-07 13:00:00
10:00 AM,87.8,78.8,75,29.92,6.2,ESE,16.1,-,N/A,,Mostly Cloudy,120,2013-09-07 14:00:00
11:00 AM,82.4,71.6,70,29.92,6.2,South,15.0,-,N/A,Rain,Rain Showers,180,2013-09-07 15:00:00
12:00 PM,89.6,73.4,59,29.89,6.2,SSE,8.1,-,N/A,,Scattered Clouds,150,2013-09-07 16:00:00
1:00 PM,89.6,71.6,55,29.89,6.2,ESE,5.8,-,N/A,,Partly Cloudy,120,2013-09-07 17:00:00
2:00 PM,91.4,75.2,59,29.86,-9999.0,ESE,8.1,-,N/A,,Unknown,120,2013-09-07 18:00:00
3:00 PM,91.4,77.0,63,29.83,-9999.0,East,11.5,-,N/A,,Unknown,90,2013-09-07 19:00:00
4:00 PM,89.6,77.0,66,29.80,-9999.0,East,10.4,-,N/A,,Unknown,90,2013-09-07 20:00:00
5:00 PM,89.6,78.8,70,29.80,6.2,ENE,13.8,-,N/A,,Partly Cloudy,60,2013-09-07 21:00:00
6:00 PM,86.0,78.8,79,29.80,-9999.0,ENE,12.7,-,N/A,,Unknown,70,2013-09-07 22:00:00
7:00 PM,86.0,78.8,79,29.80,6.2,ENE,12.7,-,N/A,,Partly Cloudy,60,2013-09-07 23:00:00
8:00 PM,84.2,78.8,84,29.83,6.2,East,12.7,-,N/A,,Partly Cloudy,80,2013-09-08 00:00:00